Miscellaneous Local Product
Issued by NWS Hastings, NE

Home | Current Version | Previous Version | Text Only | Print | Product List | Glossary Off
Versions: 1 2 3 4 5 6 7 8 9 10 11 12 13 14 15 16 17 18 19 20 21 22 23 24 25 26 27 28 29 30 31 32 33 34 35 36 37 38 39 40 41 42 43 44 45 46 47 48 49 50

000
AXUS43 KGID 272002
MISGRI

GID CWA HOURLY WEATHER ROUNDUP
NATIONAL WEATHER SERVICE HASTINGS NE
200 PM CST TUE JAN 27 2015

NOTE: "FAIR" INDICATES FEW OR NO CLOUDS BELOW 12,000 FEET WITH NO
SIGNIFICANT WEATHER AND/OR OBSTRUCTIONS TO VISIBILITY.

...SOUTH CENTRAL NEBRASKA...

CITY           SKY/WX    TMP DP  RH WIND       PRES   REMARKS
GRAND ISLAND   SUNNY     62  34  35 SE12      29.98F
HASTINGS       SUNNY     63  30  28 S8        29.97F
KEARNEY        SUNNY     63  34  34 SW7       29.96F
ORD            SUNNY     57  34  41 SE7       29.95F
YORK           SUNNY     55  34  44 S13       30.02F
AURORA         SUNNY     60  33  37 S12       29.99F
LEXINGTON      SUNNY     65  32  29 W3        29.97F
HOLDREGE       SUNNY     63  31  29 SW7       29.97F
HEBRON         SUNNY     60  30  31 SE16      30.01F

...NEBRASKA PANHANDLE...

CITY           SKY/WX    TMP DP  RH WIND       PRES   REMARKS
CHADRON        SUNNY     65  33  30 SW5       29.96F
ALLIANCE       SUNNY     68  30  24 W10       29.99F
SCOTTSBLUFF      N/A    N/A N/A N/A MISG      30.01F
SIDNEY         SUNNY     71  24  17 NW9       30.05F

...WESTERN AND NORTH CENTRAL NEBRASKA...

CITY           SKY/WX    TMP DP  RH WIND       PRES   REMARKS
VALENTINE      SUNNY     67  33  28 W9        29.92F
AINSWORTH      SUNNY     66  31  27 SW9       29.92F
ONEILL         SUNNY     57  36  45 S15G21    29.94F
BROKEN BOW     SUNNY     68  35  29 S3        29.94F
IMPERIAL       SUNNY     73  27  18 W7        30.00F
NORTH PLATTE   SUNNY     66  32  28 CALM      29.96F
MCCOOK         SUNNY     69  32  25 W8        29.98F

...EASTERN NEBRASKA...

CITY           SKY/WX    TMP DP  RH WIND       PRES   REMARKS
NORFOLK        SUNNY     54  35  48 S16       29.99F
SO SIOUX CITY  SUNNY     47  36  65 SE14      30.05F
TEKAMAH        SUNNY     50  35  56 SE12      30.06F
COLUMBUS       SUNNY     55  34  44 SE12      30.02F
ALBION         SUNNY     55  33  44 S13       29.99F
OMAHA EPPLEY   MOSUNNY   50  33  52 S12       30.07F
OFFUTT AFB     SUNNY     51  34  52 SE8       30.06F
MILLARD        SUNNY     51  34  51 SE10      30.07F
LINCOLN        SUNNY     56  32  40 S12       30.04F
NEBRASKA CITY  SUNNY     51  29  41 S12       30.08F
BEATRICE       SUNNY     58  33  39 SE12      30.04F
FALLS CITY     SUNNY     54  32  43 S9        30.07F

...NORTHERN KANSAS...

CITY           SKY/WX    TMP DP  RH WIND       PRES   REMARKS
GOODLAND       SUNNY     79  21  11 SW16      30.03F
HILL CITY      SUNNY     78  30  17 VRB6      29.98F
NORTON         CLEAR     73  25  16 W7        29.98F
PHILLIPSBURG   SUNNY     70  34  26 S3        29.97F
SMITH CENTER   SUNNY     63  32  31 S7        29.98F
BELOIT         SUNNY     68  34  28 SE9       29.97F
HAYS           SUNNY     75  34  22 S8        29.99F
RUSSELL        SUNNY     70  33  25 S8        29.98F
CONCORDIA      SUNNY     64  34  32 SE12      29.99F
SALINA         SUNNY     71  36  27 S13       30.00F
TOPEKA         SUNNY     59  33  37 SE10      30.08F



USA.gov is the U.S. government's official web portal to all federal, state and local government web resources and services.